Stündliche Wetter Abbakumovo

Heute, 28 Juli, Mittwoch

Zeit Temperatur Niederschläge Wind Luftdruck Luftfeuchtigkeit
00:00 +18°C° 0 mm 2 m/S 743 mmHg 88%
01:00 +18°C° 0 mm 2 m/S 742 mmHg 87%
02:00 +18°C° 0 mm 2 m/S 742 mmHg 85%
03:00 +18°C° 0 mm 2 m/S 742 mmHg 86%
04:00 +18°C° 0 mm 2 m/S 742 mmHg 87%
05:00 +18°C° 0 mm 2 m/S 741 mmHg 88%
06:00 +18°C° 0.7 mm 2 m/S 741 mmHg 90%
07:00 +18°C° 0.7 mm 2 m/S 741 mmHg 93%
08:00 +18°C° 0.7 mm 2 m/S 741 mmHg 95%
09:00 +18°C° 2.1 mm 3 m/S 741 mmHg 95%
10:00 +18°C° 2.1 mm 4 m/S 740 mmHg 96%
11:00 +18°C° 2.1 mm 4 m/S 740 mmHg 96%
12:00 +18°C° 1.7 mm 4 m/S 740 mmHg 96%
13:00 +16°C° 1.7 mm 5 m/S 739 mmHg 96%
14:00 +16°C° 1.7 mm 5 m/S 739 mmHg 96%
15:00 +17°C° 0.4 mm 4 m/S 738 mmHg 96%
16:00 +18°C° 0.4 mm 3 m/S 738 mmHg 96%
17:00 +18°C° 0.4 mm 3 m/S 737 mmHg 97%
18:00 +18°C° 0.2 mm 2 m/S 737 mmHg 97%
19:00 +18°C° 0.2 mm 2 m/S 737 mmHg 97%
20:00 +19°C° 0.2 mm 1 m/S 737 mmHg 98%
21:00 +19°C° 0 mm 1 m/S 737 mmHg 98%
22:00 +17°C° 0 mm 2 m/S 737 mmHg 98%
23:00 +17°C° 0 mm 2 m/S 737 mmHg 98%

Morgen, 29 Juli, Donnerstag

Zeit Temperatur Niederschläge Wind Luftdruck Luftfeuchtigkeit
00:00 +17°C° 0 mm 2 m/S 737 mmHg 98%
01:00 +16°C° 0 mm 2 m/S 737 mmHg 98%
02:00 +16°C° 0 mm 2 m/S 737 mmHg 98%
03:00 +16°C° 0 mm 2 m/S 737 mmHg 97%
04:00 +16°C° 0 mm 2 m/S 737 mmHg 97%
05:00 +15°C° 0 mm 2 m/S 737 mmHg 97%
06:00 +17°C° 0 mm 2 m/S 737 mmHg 92%
07:00 +19°C° 0 mm 2 m/S 737 mmHg 87%
08:00 +21°C° 0 mm 2 m/S 737 mmHg 83%
09:00 +24°C° 0.1 mm 3 m/S 737 mmHg 75%
10:00 +25°C° 0.1 mm 3 m/S 736 mmHg 67%
11:00 +27°C° 0.1 mm 3 m/S 736 mmHg 59%
12:00 +28°C° 0.1 mm 3 m/S 736 mmHg 55%
13:00 +28°C° 0.1 mm 3 m/S 736 mmHg 52%
14:00 +29°C° 0.1 mm 4 m/S 736 mmHg 49%
15:00 +28°C° 0 mm 3 m/S 736 mmHg 51%
16:00 +28°C° 0 mm 3 m/S 735 mmHg 54%
17:00 +27°C° 0 mm 3 m/S 735 mmHg 57%
18:00 +25°C° 0 mm 2 m/S 735 mmHg 62%
19:00 +24°C° 0 mm 2 m/S 735 mmHg 68%
20:00 +21°C° 0 mm 2 m/S 735 mmHg 74%
21:00 +20°C° 0 mm 2 m/S 735 mmHg 76%
22:00 +20°C° 0 mm 2 m/S 735 mmHg 79%
23:00 +19°C° 0 mm 2 m/S 735 mmHg 82%

übermorgen, 30 Juli, Freitag

Zeit Temperatur Niederschläge Wind Luftdruck Luftfeuchtigkeit
00:00 +19°C° 0 mm 2 m/S 735 mmHg 86%
01:00 +18°C° 0 mm 2 m/S 735 mmHg 90%
02:00 +18°C° 0 mm 2 m/S 735 mmHg 93%
03:00 +18°C° 0 mm 2 m/S 735 mmHg 93%
04:00 +18°C° 0 mm 2 m/S 735 mmHg 92%
05:00 +18°C° 0 mm 2 m/S 735 mmHg 92%
06:00 +19°C° 0 mm 2 m/S 735 mmHg 87%
07:00 +20°C° 0 mm 2 m/S 736 mmHg 81%
08:00 +21°C° 0 mm 2 m/S 736 mmHg 76%
09:00 +22°C° 0.1 mm 3 m/S 736 mmHg 71%
10:00 +24°C° 0.1 mm 3 m/S 736 mmHg 67%
11:00 +25°C° 0.1 mm 3 m/S 736 mmHg 62%
12:00 +26°C° 0.1 mm 3 m/S 735 mmHg 57%
13:00 +27°C° 0.1 mm 4 m/S 735 mmHg 52%
14:00 +27°C° 0.1 mm 4 m/S 735 mmHg 47%
15:00 +26°C° 0 mm 4 m/S 735 mmHg 52%
16:00 +25°C° 0 mm 3 m/S 735 mmHg 56%
17:00 +24°C° 0 mm 3 m/S 735 mmHg 61%
18:00 +22°C° 0 mm 3 m/S 734 mmHg 65%
19:00 +20°C° 0 mm 2 m/S 734 mmHg 69%
20:00 +19°C° 0 mm 2 m/S 734 mmHg 73%
21:00 +19°C° 0 mm 2 m/S 734 mmHg 74%
22:00 +18°C° 0 mm 2 m/S 734 mmHg 75%
23:00 +18°C° 0 mm 2 m/S 735 mmHg 76%

31 Juli, Samstag

Zeit Temperatur Niederschläge Wind Luftdruck Luftfeuchtigkeit
00:00 +17°C° 0 mm 2 m/S 734 mmHg 75%
01:00 +16°C° 0 mm 3 m/S 734 mmHg 74%
02:00 +16°C° 0 mm 3 m/S 734 mmHg 74%
03:00 +16°C° 0 mm 3 m/S 734 mmHg 74%
04:00 +15°C° 0 mm 4 m/S 734 mmHg 75%
05:00 +15°C° 0 mm 4 m/S 734 mmHg 75%
06:00 +17°C° 0 mm 5 m/S 734 mmHg 69%
07:00 +19°C° 0 mm 5 m/S 734 mmHg 62%
08:00 +21°C° 0 mm 6 m/S 735 mmHg 56%
09:00 +22°C° 0 mm 6 m/S 735 mmHg 50%
10:00 +23°C° 0 mm 6 m/S 735 mmHg 45%
11:00 +24°C° 0 mm 7 m/S 735 mmHg 40%
12:00 +26°C° 0 mm 7 m/S 735 mmHg 39%
13:00 +26°C° 0 mm 6 m/S 735 mmHg 38%
14:00 +27°C° 0 mm 6 m/S 735 mmHg 38%
15:00 +26°C° 0 mm 6 m/S 735 mmHg 41%
16:00 +26°C° 0 mm 5 m/S 735 mmHg 44%
17:00 +25°C° 0 mm 5 m/S 735 mmHg 47%
18:00 +22°C° 0 mm 4 m/S 735 mmHg 52%
19:00 +20°C° 0 mm 3 m/S 735 mmHg 58%
20:00 +18°C° 0 mm 2 m/S 735 mmHg 63%
21:00 +18°C° 0 mm 2 m/S 735 mmHg 64%
22:00 +17°C° 0 mm 2 m/S 735 mmHg 65%
23:00 +16°C° 0 mm 2 m/S 735 mmHg 67%

1 August, Sonntag

Zeit Temperatur Niederschläge Wind Luftdruck Luftfeuchtigkeit
00:00 +16°C° 0 mm 2 m/S 735 mmHg 67%
01:00 +16°C° 0 mm 2 m/S 735 mmHg 67%
02:00 +16°C° 0 mm 2 m/S 735 mmHg 67%
03:00 +16°C° 0.6 mm 3 m/S 734 mmHg 75%
04:00 +16°C° 0.6 mm 3 m/S 733 mmHg 83%
05:00 +16°C° 0.6 mm 3 m/S 732 mmHg 92%
06:00 +16°C° 2.2 mm 5 m/S 732 mmHg 93%
07:00 +17°C° 2.2 mm 6 m/S 732 mmHg 94%
08:00 +18°C° 2.2 mm 7 m/S 732 mmHg 95%
09:00 +20°C° 0.1 mm 6 m/S 732 mmHg 87%
10:00 +21°C° 0.1 mm 6 m/S 733 mmHg 78%
11:00 +22°C° 0.1 mm 5 m/S 734 mmHg 69%
12:00 +23°C° 0.1 mm 5 m/S 734 mmHg 65%
13:00 +24°C° 0.1 mm 6 m/S 734 mmHg 60%
14:00 +24°C° 0.1 mm 6 m/S 735 mmHg 56%
15:00 +25°C° 0 mm 5 m/S 735 mmHg 54%
16:00 +25°C° 0 mm 5 m/S 735 mmHg 52%
17:00 +26°C° 0 mm 5 m/S 735 mmHg 50%
18:00 +23°C° 0 mm 5 m/S 735 mmHg 56%
19:00 +21°C° 0 mm 4 m/S 736 mmHg 62%
20:00 +19°C° 0 mm 3 m/S 736 mmHg 68%
21:00 +18°C° 0 mm 3 m/S 736 mmHg 72%
22:00 +18°C° 0 mm 2 m/S 736 mmHg 75%
23:00 +17°C° 0 mm 2 m/S 736 mmHg 79%

2 August, Montag

Zeit Temperatur Niederschläge Wind Luftdruck Luftfeuchtigkeit
00:00 +16°C° 0 mm 2 m/S 737 mmHg 80%
01:00 +16°C° 0 mm 2 m/S 737 mmHg 82%
02:00 +15°C° 0 mm 2 m/S 737 mmHg 83%
03:00 +15°C° 0 mm 2 m/S 737 mmHg 84%
04:00 +15°C° 0 mm 2 m/S 737 mmHg 85%
05:00 +15°C° 0 mm 2 m/S 737 mmHg 86%
06:00 +17°C° 0 mm 2 m/S 737 mmHg 79%
07:00 +19°C° 0 mm 2 m/S 737 mmHg 73%
08:00 +20°C° 0 mm 2 m/S 737 mmHg 66%
09:00 +21°C° 0 mm 2 m/S 737 mmHg 65%
10:00 +21°C° 0 mm 2 m/S 737 mmHg 64%
11:00 +23°C° 0 mm 2 m/S 737 mmHg 62%
12:00 +21°C° 0.2 mm 2 m/S 737 mmHg 70%
13:00 +20°C° 0.2 mm 2 m/S 737 mmHg 78%
14:00 +18°C° 0.2 mm 2 m/S 736 mmHg 85%
15:00 +18°C° 0.3 mm 2 m/S 736 mmHg 87%
16:00 +18°C° 0.3 mm 3 m/S 735 mmHg 88%
17:00 +18°C° 0.3 mm 3 m/S 734 mmHg 90%
18:00 +18°C° 3.5 mm 4 m/S 734 mmHg 92%
19:00 +17°C° 3.5 mm 4 m/S 733 mmHg 95%
20:00 +17°C° 3.5 mm 4 m/S 733 mmHg 97%
21:00 +17°C° 0.9 mm 3 m/S 733 mmHg 97%
22:00 +17°C° 0.9 mm 3 m/S 732 mmHg 98%
23:00 +16°C° 0.9 mm 3 m/S 732 mmHg 98%
Mehr zeigen

Wir brauchen deine Erlaubnis

Meteoprog und unser Service Anbieter werden persönliche Daten aufbewahren, so wie Cookies, Geräte Bezeichnung oder ähnliche Technologien von deinem Gerät und Prozess, so wie Persönliche Daten Inhalte und Werbungen, genauso wie social Media und den Verkehr zu analysieren.

  • Aufbewahrung und/oder Zugang zu deiner Geräte Informationen.

    Cookies, Geräte Bezeichnung oder andere Informationen, können aufbewahrt oder Zugang zu deinem Gerät erhalten, für den Grund, der oben angegeben wird.

  • Personalisierte Werbung und Inhalte, Messungen, Einblick in das Publikum und Produkt Entwicklung.

    Werbungen und Inhalte können personalisiert werden, basierend auf ein Profil. Mehr Daten können besser personalisierte Werbungen und Inhalte hinzufügen. Werbung und Inhalte können gezeigt und gemessen werden. Einblicke über das Publikum, welche die Werbung gesehen haben und den Inhalt, können abgeleitet werden. So wie Daten können genutzt werden, um es zu verbessern oder die Benutzer Erfahrung zu verbessern das System und die Software.

Wenn du “Ich stimme zu” klickst, erlaubst du uns, die Cookies zu benutzen die Geräte Bezeichnung, den Web oder ähnliche Technologien zu benutzen. Deine Settings, können in deinem Gerät bei deinem Browser geändert werden.

Für den bestimmten Zweck, berechtigten Interessen beruhen darauf, mehr als auf den Inhalt. Du kannst mehr darüber in unseren Privaten und Cookie Politik lesen.